THURAYA-4

Last updated on Tue Sep 22 2026 00:03:16 GMT+0000 (Coordinated Universal Time)

1 62483U 25001A 26264.14144914 .00000135 00000+0 00000+0 0 9996 2 62483 0.0213 101.1152 0000236 1.5130 352.6337 1.00274049 5138
UTC large
Height (km)
Speed (km/s)
/
Latitude / Longitude
Inclination (degrees)
Orbital Period (minutes)
Azimuth
Elevation
Range (km)
Doppler Factor

Next 0 passes for location: London (51.5072 / 0.1276)

No passes found over London.
THURAYA-4